Location: Goodsell Observatory
(44.4617°N, 93.1522°W)
Time: 03:19:56
(UTC-05:00)

Daily predictions for brighter satellites

Satellite Brightness Start Highest point End
(mag) Time Altitude Azimuth Time Altitude Azimuth Time Altitude Azimuth
ATLAS 2AS CENTAUR R/B 3.9 02:58:45 43° N 02:58:45 43° N 03:04:27 10° NNE
SL-16 R/B 3.9 03:10:06 33° NNE 03:10:06 33° NNE 03:13:45 10° N
Lacrosse 5 4.3 03:24:08 18° ENE 03:24:08 18° ENE 03:25:37 10° ENE
Lacrosse 5 rocket 4.2 03:41:17 17° NNE 03:41:17 17° NNE 03:42:27 10° NE
CZ-2D R/B 3.5 03:41:34 10° NNE 03:44:44 35° NE 03:44:44 35° NE
USA 215 4.2 03:41:30 10° SE 03:45:10 37° ESE 03:45:10 37° ESE
CENTAUR R/B 4.2 03:41:51 10° NNW 03:48:54 39° NE 03:56:30 10° ESE
SL-16 R/B 3.5 03:49:31 10° NNW 03:54:47 37° NE 04:00:01 10° ESE
NOSS 3-2 (C) 4.3 04:03:59 54° SSE 04:03:59 54° SSE 04:09:57 10° SSE
Resurs 1-4 Rocket 3.1 03:56:49 10° NNE 04:00:20 43° NNE 04:00:20 43° NNE
Cosmos 2227 Rocket 2.7 04:07:33 58° ENE 04:07:33 58° ENE 04:12:15 10° NNE
Cosmos 2297 Rocket 2.6 04:15:34 59° ESE 04:15:34 59° ESE 04:20:58 10° NNE
Meteor 1-13 Rocket 4.3 04:23:05 79° ENE 04:23:05 79° ENE 04:28:38 10° NNE
Cosmos 1727 Rocket 4.0 04:22:12 67° SSE 04:23:02 78° E 04:29:23 10° N
ARIANE 5 R/B 3.8 04:21:43 10° N 04:24:33 31° NNW 04:24:33 31° NNW
NOSS 3-4 (A) 3.4 04:26:56 77° WNW 04:27:01 77° NW 04:33:38 10° NE
NOSS 3-4 (C) 3.4 04:27:01 77° WNW 04:27:07 78° NW 04:33:44 10° NE
FALCON 9 R/B 4.5 04:28:31 17° SSE 04:32:07 23° SE 04:43:54 10° E
Cosmos 1025 Rocket 3.9 04:33:23 45° NNE 04:33:23 45° NNE 04:36:33 10° NNE
Cosmos 1346 Rocket 4.1 04:33:38 40° ENE 04:33:38 40° ENE 04:36:51 10° NNE
RESURS DK-1 3.4 04:44:07 40° NNE 04:44:07 40° NNE 04:46:53 10° NNE
Cosmos 2082 3.7 04:49:11 61° WNW 04:49:13 61° WNW 04:54:48 10° NNE
ATLAS 2AS CENTAUR R/B 4.5 04:46:12 19° NW 04:49:24 24° NNW 04:55:42 10° NNE
Cosmos 2344 3.9 04:47:37 43° W 04:49:46 53° NW 04:58:47 10° NE
PSLV R/B 4.1 04:47:01 10° NNE 04:50:48 70° NE 04:50:48 70° NE
Cosmos 1605 Rocket 4.4 04:45:20 10° NNW 04:50:01 43° WNW 04:50:01 43° WNW
Cosmos 1153 Rocket 4.4 04:45:03 10° NNW 04:51:22 70° W 04:54:45 29° S
SL-16 R/B 4.1 04:55:12 19° NW 04:55:12 19° NW 04:57:08 10° NNW
MOZ.5/SAFIR/RUBIN 5/SL-8 4.1 04:54:28 52° NW 04:54:28 52° NW 04:58:11 10° NNW
ADEOS II 3.7 04:49:06 10° NNE 04:53:49 32° E 04:58:29 10° SSE
BREEZE-M DEB (TANK) 4.3 04:36:00 10° WNW 04:58:26 82° NNE 05:03:17 10° ESE
Cosmos 1339 Rocket 4.4 04:56:29 45° SSW 04:58:28 69° W 05:04:54 10° N
PAYLOAD B 4.3 04:54:52 10° NNE 05:00:24 75° ESE 05:04:02 22° S
Lacrosse 5 2.3 05:03:21 45° NW 05:03:50 47° NNW 05:08:44 10° NE
Okean O Rocket 1.4 05:01:04 10° N 05:05:29 80° WNW 05:05:58 69° SW
Cosmos 1726 Rocket 3.5 05:01:06 10° NNW 05:05:02 65° NW 05:05:02 65° NW
ATLAS 5 CENTAUR R/B 4.2 05:15:05 15° SSW 05:15:05 15° SSW 05:16:25 10° S
Meteor 1-15 Rocket 4.1 05:06:42 10° NNW 05:12:18 83° W 05:17:55 10° S
Cosmos 2298 Rocket 3.9 05:10:35 35° SSW 05:12:52 87° WNW 05:18:14 10° NNE
CZ-4B R/B 3.1 05:12:20 10° NNE 05:17:47 84° WNW 05:22:01 18° SSW
Lacrosse 5 rocket 3.6 05:17:01 15° NW 05:18:37 17° N 05:21:36 10° NNE
PSLV R/B 4.0 05:16:59 10° NNE 05:21:18 61° E 05:25:31 10° S
Cosmos 1892 Rocket 3.6 05:20:37 46° SW 05:21:39 60° W 05:26:07 10° N
Cosmos 2150 Rocket 3.8 05:23:29 28° SSW 05:26:15 77° WNW 05:31:26 10° NNE
CZ-2D R/B 3.5 05:22:32 10° NNW 05:26:03 21° NW 05:26:03 21° NW
Thor Agena Rocket 3.5 05:21:15 10° SSE 05:26:33 81° WSW 05:31:52 10° NNW
Cosmos 2228 2.9 05:22:25 10° N 05:26:50 78° W 05:31:10 10° S
Cosmos 1174 3.2 05:28:42 36° NNW 05:29:47 77° NE 05:33:05 10° SE
USA 215 4.0 05:26:02 10° S 05:31:32 29° SW 05:32:35 27° WSW
ADEOS Rocket 3.2 05:24:50 10° NNE 05:32:00 86° WNW 05:38:22 10° SSW
Cosmos 2100 Rocket 4.1 05:26:08 10° NNW 05:32:10 54° W 05:38:16 10° SSW
Meteor 2-4 Rocket 4.0 05:30:19 26° SW 05:33:27 49° WNW 05:39:13 10° N
CZ-4B R/B 3.3 05:31:29 10° N 05:35:48 52° WNW 05:38:04 26° SW
Cosmos 1802 Rocket 3.9 05:30:10 10° NNW 05:36:14 62° W 05:42:16 10° S
IRS-1C Rocket 4.4 05:31:36 10° N 05:36:38 46° WNW 05:39:22 25° SW
Cosmos 2061 Rocket 4.1 05:32:09 10° NNW 05:38:16 54° W 05:44:27 10° SSW
OPS 6432 4.1 05:37:37 47° SW 05:38:26 80° NW 05:41:30 10° NE
SL-16 R/B 2.7 05:33:43 10° NW 05:38:53 37° WSW 05:44:00 10° S
CENTAUR R/B 3.0 05:32:26 10° NW 05:40:12 68° WSW 05:48:26 10° SSE
Resurs 1-4 Rocket 3.7 05:38:09 10° NNW 05:41:22 16° WNW 05:41:25 16° WNW
Cosmos 1812 Rocket 4.0 05:37:23 10° N 05:41:49 65° E 05:46:15 10° SSE
Cosmos 1725 Rocket 4.0 05:36:33 10° N 05:42:53 86° E 05:49:09 10° S
Cosmos 1898 Rocket 3.8 05:45:13 22° SW 05:48:24 47° WNW 05:53:30 10° N
Okean 2 4.2 05:49:17 27° W 05:50:08 30° WNW 05:53:49 10° NNW
NOSS 2-2 (D) 3.6 05:47:43 17° SSW 05:50:54 84° SE 05:55:45 10° NE
Cosmos 2227 Rocket 3.5 05:49:25 19° WNW 05:51:13 22° NW 05:55:35 10° N
Cosmos 2098 Rocket 3.3 05:48:45 10° NNW 05:52:44 52° W 05:57:45 10° S
Tiangong 1 1.2 05:54:26 33° WSW 05:55:28 52° S 05:58:26 10° ESE
Cosmos 1937 Rocket 3.7 05:52:57 13° SW 05:57:29 53° WNW 06:02:40 10° NNE
DELTA 2 R/B (1) 4.0 05:56:08 20° WSW 05:59:51 53° S 06:05:15 10° ESE
Cosmos 2297 Rocket 3.4 05:57:24 19° W 05:59:51 25° NW 06:04:29 10° N
Intercosmos 25 Rocket 3.9 05:56:46 10° N 06:00:23 69° E 06:05:46 10° SSE
Meteor 2-17 Rocket 4.5 05:55:01 10° N 06:01:12 89° W 06:07:21 10° S
Cosmos 2016 Rocket 4.2 05:57:22 10° NNW 06:03:23 46° W 06:09:17 10° SSW
AVUM R/B 3.3 06:01:11 10° NNW 06:03:33 50° ENE 06:05:47 10° SE
Cosmos 2058 Rocket 4.2 06:00:53 10° NW 06:04:16 22° W 06:07:39 10° SW
NOSS 2-2 (C) 3.6 06:02:41 14° SW 06:06:18 71° NW 06:11:14 10° NE
NOSS 2-2 (E) 3.7 06:03:52 15° SW 06:07:23 64° NW 06:12:26 10° NNE
Cosmos 1346 Rocket 4.5 06:09:14 15° WNW 06:09:41 16° WNW 06:12:11 10° NNW
USA 116 4.5 06:05:47 10° S 06:10:31 44° W 06:14:50 10° NNW
Okean-O 2.9 06:10:09 10° N 06:14:26 47° WNW 06:18:40 10° SW
NOAA 6 4.3 06:10:27 10° NNE 06:15:40 77° ESE 06:20:52 10° S
COSMO-SKYMED 1 3.0 06:12:09 10° SSE 06:16:27 69° ENE 06:20:46 10° N
Cosmos 1825 Rocket 4.1 06:13:40 10° S 06:18:01 64° E 06:22:21 10° NNE
Cosmos 1943 3.3 06:14:17 10° NNW 06:19:56 84° ENE 06:25:34 10° SSE
Iridium 4 Rocket 4.0 06:16:23 10° SSE 06:21:03 57° E 06:25:22 10° N
Meteor 1-22 Rocket 4.2 06:19:21 10° NNW 06:24:54 86° W 06:30:39 10° S
Cosmos 2123 Rocket 4.2 06:19:26 10° SSW 06:25:23 49° WNW 06:31:23 10° N
Cosmos 1603 4.1 06:21:23 10° NW 06:26:41 40° WSW 06:31:54 10° S
Cosmos 1626 Rocket 4.3 06:27:43 10° SW 06:31:34 30° WNW 06:35:26 10° NNW
SL-24 R/B 3.9 06:27:35 10° NNE 06:31:52 86° W 06:35:41 10° SSW
Cosmos 2263 Rocket 3.0 06:26:50 10° S 06:32:14 56° ESE 06:37:41 10° NNE
ADEOS II 2.7 06:28:47 10° N 06:33:32 35° WNW 06:38:16 10° SW
Genesis I 3.8 06:30:00 10° WSW 06:33:48 41° NW 06:37:38 10° NNE
MOS 1 Rocket 3.7 06:30:11 10° N 06:34:51 49° WNW 06:39:46 10° SW
Cosmos 1766 3.3 06:33:38 10° N 06:37:40 84° W 06:41:39 10° S
Meteor 1-31 Rocket 3.4 06:38:05 10° N 06:41:42 36° WNW 06:45:19 10° SW
SeaSat 1 3.2 06:39:23 10° SE 06:44:13 58° ENE 06:49:05 10° NNW
Meteor 1-21 4.4 06:38:33 10° S 06:44:19 86° E 06:50:11 10° NNE
COBE Rocket 4.4 06:42:23 10° N 06:46:45 36° WNW 06:50:59 10° SW
